CW3181 Weather Reports


Display with metric or nautical units.
time (UTC)temp
F
wind
direction
speed
MPH
gust
MPH
rain 1hr
in
rain 24hr
in
rain mn
in
humidity
%
barometer
mb
20170428140027 81 98 3.0 0.0 0.00 0.00 0.00 84 1017.4
20170428135011 81 88 4.0 0.0 0.00 0.00 0.00 85 1017.3
20170428134027 81 111 3.0 0.0 0.00 0.00 0.00 86 1017.4
20170428133021 80 113 4.0 0.0 0.00 0.00 0.00 87 1017.3
20170428132024 80 128 2.0 0.0 0.00 0.00 0.00 88 1017.2
20170428131019 79 128 2.0 0.0 0.00 0.00 0.00 89 1017.2
20170428130025 79 123 1.0 0.0 0.00 0.00 0.00 89 1017.0
20170428125029 79 85 1.0 0.0 0.00 0.00 0.00 90 1017.0
20170428124028 78 128 1.0 0.0 0.00 0.00 0.00 90 1016.9
20170428123027 78 135 2.0 0.0 0.00 0.00 0.00 91 1016.7
20170428122025 77 84 1.0 0.0 0.00 0.00 0.00 92 1016.6
20170428121013 77 103 2.0 0.0 0.00 0.00 0.00 92 1016.5
20170428120013 77 98 1.0 0.0 0.00 0.00 0.00 93 1016.5
20170428115015 77 106 1.0 0.0 0.00 0.00 0.00 93 1016.5
20170428114016 76 113 1.0 0.0 0.00 0.00 0.00 94 1016.3
20170428113015 76 101 1.0 0.0 0.00 0.00 0.00 94 1016.2
20170428112013 76 107 1.0 0.0 0.00 0.00 0.00 94 1016.0
20170428111027 76 113 1.0 0.0 0.00 0.00 0.00 94 1015.9
20170428110023 76 113 1.0 0.0 0.00 0.00 0.00 95 1015.9
20170428105025 76 111 1.0 0.0 0.00 0.00 0.00 95 1015.8
20170428104027 76 94 0.0 0.0 0.00 0.00 0.00 95 1015.6
20170428103027 76 101 0.0 0.0 0.00 0.00 0.00 95 1015.4
20170428102022 76 102 1.0 0.0 0.00 0.00 0.00 95 1015.3
20170428101028 76 103 1.0 0.0 0.00 0.00 0.00 94 1015.1
20170428100011 76 92 1.0 0.0 0.00 0.00 0.00 94 1015.0
20170428095032 76 117 1.0 0.0 0.00 0.00 0.00 94 1014.9
20170428094024 76 83 1.0 0.0 0.00 0.00 0.00 94 1014.7
20170428093022 75 117 0.0 0.0 0.00 0.00 0.00 94 1014.7
20170428092019 75 106 0.0 0.0 0.00 0.00 0.00 94 1014.6
20170428091022 75 92 0.0 0.0 0.00 0.00 0.00 93 1014.4
20170428090019 75 67 0.0 0.0 0.00 0.00 0.00 93 1014.2
20170428085014 76 74 0.0 0.0 0.00 0.00 0.00 92 1014.0
20170428084015 76 69 0.0 0.0 0.00 0.00 0.00 92 1014.0
20170428083021 77 86 0.0 0.0 0.00 0.00 0.00 92 1013.8
20170428082020 77 96 0.0 0.0 0.00 0.00 0.00 92 1013.9
20170428081016 77 84 0.0 0.0 0.00 0.00 0.00 92 1014.0
20170428080016 77 96 0.0 0.0 0.00 0.00 0.00 92 1014.1
20170428075024 77 109 0.0 0.0 0.00 0.00 0.00 92 1014.1
20170428074022 77 129 0.0 0.0 0.00 0.00 0.00 92 1014.1
20170428073025 77 128 1.0 0.0 0.00 0.00 0.00 91 1014.0
20170428072019 77 115 2.0 0.0 0.00 0.00 0.00 91 1014.0
20170428071023 77 121 1.0 0.0 0.00 0.00 0.00 91 1014.1
20170428070028 77 107 1.0 0.0 0.00 0.00 0.00 91 1014.1
20170428065027 78 103 2.0 0.0 0.00 0.00 0.00 92 1014.1
20170428064016 78 113 1.0 0.0 0.00 0.00 0.00 92 1014.1
20170428063032 78 132 1.0 0.0 0.00 0.00 0.00 92 1014.1
20170428062015 78 154 1.0 0.0 0.00 0.00 0.00 92 1014.0
20170428061012 78 129 0.0 0.0 0.00 0.00 0.00 92 1014.1
20170428060016 78 139 0.0 0.0 0.00 0.00 0.00 91 1014.2
20170428055025 78 129 0.0 0.0 0.00 0.00 0.00 91 1014.2
20170428054022 78 136 0.0 0.0 0.00 0.00 0.00 91 1014.3
20170428053025 78 123 0.0 0.0 0.00 0.00 0.00 91 1014.2
20170428052021 78 98 0.0 0.0 0.00 0.00 0.00 90 1014.3
20170428051014 78 134 0.0 0.0 0.00 0.00 0.00 90 1014.2
20170428050027 78 121 0.0 0.0 0.00 0.00 0.00 90 1014.3
20170428045028 78 136 0.0 0.0 0.00 0.00 0.00 89 1014.2
20170428044022 78 136 0.0 0.0 0.00 0.00 0.00 89 1014.1
20170428043022 78 132 0.0 0.0 0.00 0.00 0.00 89 1014.1
20170428042017 78 164 0.0 0.0 0.00 0.00 0.00 90 1014.3
20170428041021 77 123 0.0 0.0 0.00 0.00 0.00 89 1014.3
20170428040018 77 134 0.0 0.0 0.00 0.00 0.00 90 1014.3
20170428035020 78 138 0.0 0.0 0.00 0.00 0.00 90 1014.4
20170428034017 77 107 0.0 0.0 0.00 0.00 0.00 90 1014.5
20170428033015 77 115 0.0 0.0 0.00 0.00 0.00 90 1014.3
20170428032026 78 142 0.0 0.0 0.00 0.00 0.00 89 1014.3
20170428031022 78 140 0.0 0.0 0.00 0.00 0.00 89 1014.2
20170428030032 78 135 0.0 0.0 0.00 0.00 0.00 89 1014.2
20170428025029 78 155 0.0 0.0 0.00 0.00 0.00 89 1014.3
20170428024030 78 160 0.0 0.0 0.00 0.00 0.00 89 1014.2
20170428023013 78 160 0.0 0.0 0.00 0.00 0.00 89 1014.1
20170428022014 77 173 0.0 0.0 0.00 0.00 0.00 88 1014.0
20170428021021 77 173 0.0 0.0 0.00 0.00 0.00 88 1013.9
20170428020029 77 173 0.0 0.0 0.00 0.00 0.00 88 1013.8
20170428015016 77 173 0.0 0.0 0.00 0.00 0.00 87 1013.7
20170428014027 78 173 0.0 0.0 0.00 0.00 0.00 86 1013.6
20170428013020 78 173 0.0 0.0 0.00 0.00 0.00 86 1013.5
20170428012016 78 169 0.0 0.0 0.00 0.00 0.00 85 1013.3
20170428011016 78 168 0.0 0.0 0.00 0.00 0.00 85 1013.2
20170428010025 79 166 0.0 0.0 0.00 0.00 0.00 84 1013.2
20170428005022 79 178 0.0 0.0 0.00 0.00 0.00 83 1013.1
20170428004021 79 192 0.0 0.0 0.00 0.00 0.00 83 1012.9
20170428003015 79 154 0.0 0.0 0.00 0.00 0.00 82 1012.7
20170428002018 79 142 0.0 0.0 0.00 0.00 0.00 81 1012.6
20170428001016 79 194 0.0 0.0 0.00 0.00 0.00 81 1012.6
20170428000021 80 165 0.0 0.0 0.00 0.00 0.00 80 1012.5
20170427235028 80 205 0.0 0.0 0.00 0.00 0.00 79 1012.5
20170427234026 81 167 1.0 0.0 0.00 0.00 0.00 77 1012.4
20170427233021 81 167 0.0 0.0 0.00 0.00 0.00 76 1012.4
20170427232022 81 184 1.0 0.0 0.00 0.00 0.00 76 1012.3
20170427231020 82 193 0.0 0.0 0.00 0.00 0.00 76 1012.1
20170427230017 82 165 1.0 0.0 0.00 0.00 0.00 75 1012.0
20170427225020 82 191 1.0 0.0 0.00 0.00 0.00 73 1012.0
20170427224011 82 210 2.0 0.0 0.00 0.00 0.00 73 1012.0
20170427223027 83 194 3.0 0.0 0.00 0.00 0.00 72 1011.8
20170427222026 83 169 1.0 0.0 0.00 0.00 0.00 73 1011.9
20170427221023 83 217 3.0 0.0 0.00 0.00 0.00 70 1011.8
20170427220021 83 173 2.0 0.0 0.00 0.00 0.00 72 1011.9
20170427215020 83 165 1.0 0.0 0.00 0.00 0.00 72 1011.9
20170427214030 83 131 1.0 0.0 0.00 0.00 0.00 73 1011.9
20170427213028 83 147 3.0 0.0 0.00 0.00 0.00 72 1012.0
20170427212027 83 162 5.0 0.0 0.00 0.00 0.00 72 1012.1
20170427211014 83 198 5.0 0.0 0.00 0.00 0.00 71 1012.1
20170427210024 84 202 4.0 0.0 0.00 0.00 0.00 72 1012.2
20170427205022 84 202 3.0 0.0 0.00 0.00 0.00 70 1012.3
20170427204015 84 135 4.0 0.0 0.00 0.00 0.00 70 1012.4
20170427203031 84 178 5.0 0.0 0.00 0.00 0.00 68 1012.3
20170427202024 84 163 3.0 0.0 0.00 0.00 0.00 68 1012.4
20170427201027 84 161 3.0 0.0 0.00 0.00 0.00 69 1012.4
20170427200028 84 205 2.0 0.0 0.00 0.00 0.00 69 1012.5
20170427195012 84 219 3.0 0.0 0.00 0.00 0.00 70 1012.7
20170427194015 84 175 4.0 0.0 0.00 0.00 0.00 69 1012.8
20170427193020 84 234 4.0 0.0 0.00 0.00 0.00 70 1012.9
20170427192030 84 176 5.0 0.0 0.00 0.00 0.00 69 1013.1
20170427191024 85 208 4.0 0.0 0.00 0.00 0.00 69 1013.2
20170427190016 85 227 1.0 0.0 0.00 0.00 0.00 70 1013.4
20170427185019 85 161 1.0 0.0 0.00 0.00 0.00 70 1013.5
20170427184013 85 185 1.0 0.0 0.00 0.00 0.00 72 1013.6
20170427183028 85 148 1.0 0.0 0.00 0.00 0.00 72 1013.7
20170427182012 84 109 2.0 0.0 0.00 0.00 0.00 74 1013.7
20170427181011 85 176 1.0 0.0 0.00 0.00 0.00 74 1013.8
20170427180031 84 232 1.0 0.0 0.00 0.00 0.00 75 1013.8
20170427175029 84 154 1.0 0.0 0.00 0.00 0.00 75 1013.8
20170427174028 84 190 0.0 0.0 0.00 0.00 0.00 74 1013.9
20170427173024 84 165 1.0 0.0 0.00 0.00 0.00 76 1014.1
20170427172018 84 201 1.0 0.0 0.00 0.00 0.00 75 1014.2
20170427171013 84 214 1.0 0.0 0.00 0.00 0.00 76 1014.2
20170427170015 83 136 1.0 0.0 0.00 0.00 0.00 76 1014.2
20170427165032 84 174 0.0 0.0 0.00 0.00 0.00 76 1014.4
20170427164030 84 317 0.0 0.0 0.00 0.00 0.00 77 1014.5
20170427163014 83 126 1.0 0.0 0.00 0.00 0.00 78 1014.5
20170427162026 83 162 1.0 0.0 0.00 0.00 0.00 78 1014.5
20170427161019 83 151 1.0 0.0 0.00 0.00 0.00 79 1014.6
20170427160020 83 131 1.0 0.0 0.00 0.00 0.00 79 1014.7
20170427155011 82 110 0.0 0.0 0.00 0.00 0.00 80 1014.7
20170427154031 82 210 0.0 0.0 0.00 0.00 0.00 82 1014.8
20170427153026 81 171 1.0 0.0 0.00 0.00 0.00 83 1014.7
20170427152018 81 115 2.0 0.0 0.00 0.00 0.00 84 1014.5
20170427151015 81 146 1.0 0.0 0.00 0.00 0.00 83 1014.5
20170427150016 80 131 3.0 0.0 0.00 0.00 0.00 83 1014.4
20170427145030 80 98 2.0 0.0 0.00 0.00 0.00 84 1014.3
20170427144027 80 114 2.0 0.0 0.00 0.00 0.00 85 1014.2
20170427143025 79 144 1.0 0.0 0.00 0.00 0.00 87 1014.2
20170427142020 79 95 1.0 0.0 0.00 0.00 0.00 86 1014.1
20170427141013 79 134 3.0 0.0 0.00 0.00 0.00 88 1014.0